Low Isles Observation History
Time Wind Speed Temp Pressure Rel. Hum Rain
25/01:30pm ENE 6-10 kts 31.4°c 1006.6 hPa 63% 0.0mm
25/01:00pm ENE 7-9 kts 29.4°c 1006.8 hPa 65% 0.0mm
25/12:30pm ENE 6-8 kts 29.0°c 1007.1 hPa 64% 0.0mm
25/12:00pm ENE 8-10 kts 28.9°c 1007.5 hPa 65% 0.0mm
25/11:30am ENE 8-11 kts 28.8°c 1007.5 hPa 64% 0.0mm
25/11:00am ENE 10-12 kts 27.8°c 1007.7 hPa 67% 0.0mm
25/10:30am ENE 10-13 kts 27.7°c 1007.7 hPa 69% 0.0mm
25/10:00am ENE 10-12 kts 27.4°c 1007.9 hPa 72% 0.0mm
25/09:30am ENE 10-12 kts 27.2°c 1008.1 hPa 73% 0.0mm
25/09:00am NE 10-11 kts 26.9°c 1008.1 hPa 74% 0.0mm
25/08:30am E 8-10 kts 26.5°c 1008.1 hPa 79% 0.0mm
25/08:00am E 9-10 kts 25.8°c 1008.0 hPa 78% 0.0mm
25/07:30am ESE 10-11 kts 25.7°c 1008.0 hPa 80% 0.0mm
25/07:00am ESE 8-9 kts 26.1°c 1007.8 hPa 81% 0.0mm
25/06:30am ENE 4-8 kts 26.1°c 1007.6 hPa 78% 0.0mm
25/06:00am E 5-6 kts 26.4°c 1007.3 hPa 79% 0.0mm
25/05:30am S 7-9 kts 26.2°c 1006.8 hPa 79% 0.0mm
25/05:00am SSE 8-9 kts 26.3°c 1006.5 hPa 77% 0.0mm
25/04:30am SSE 10-13 kts 26.4°c 1006.4 hPa 76% 0.0mm
25/04:00am SSE 10-12 kts 26.5°c 1006.3 hPa 80% 0.0mm
25/03:30am SSE 10-11 kts 26.4°c 1006.5 hPa 80% 0.0mm
25/03:00am S 10-12 kts 26.2°c 1006.6 hPa 79% 0.0mm
25/02:30am SSE 9-11 kts 26.3°c 1007.0 hPa 78% 0.0mm
25/02:00am SSE 7-9 kts 26.3°c 1007.4 hPa 79% 0.0mm
25/01:30am SSE 7-9 kts 26.4°c 1007.7 hPa 77% 0.0mm
25/01:00am S 8-11 kts 26.5°c 1008.0 hPa 75% 0.0mm
25/12:30am S 8-10 kts 26.7°c 1008.4 hPa 76% 0.0mm
25/12:00am S 10-12 kts 26.9°c 1008.9 hPa 77% 0.0mm
Time Wind Speed Temp Pressure Rel. Hum Rain
24/11:30pm ESE 8-10 kts 27.1°c 1009.1 hPa 72% 0.0mm
24/11:00pm ESE 10-12 kts 27.2°c 1009.2 hPa 71% 0.0mm
24/10:30pm ESE 10-13 kts 27.4°c 1009.2 hPa 72% 0.0mm
24/10:00pm ESE 12-15 kts 27.5°c 1008.9 hPa 73% 0.0mm
24/09:30pm ESE 14-16 kts 27.5°c 1008.6 hPa 76% 0.0mm
24/09:00pm ESE 15-17 kts 27.6°c 1008.4 hPa 75% 0.0mm
24/08:30pm ESE 15-18 kts 27.6°c 1008.2 hPa 77% 0.0mm
24/08:00pm ESE 15-18 kts 27.7°c 1007.9 hPa 77% 0.0mm
24/07:30pm ESE 14-17 kts 27.8°c 1007.7 hPa 76% 0.0mm
24/07:00pm ESE 14-17 kts 27.8°c 1007.5 hPa 72% 0.0mm
24/06:30pm ESE 15-19 kts 28.0°c 1007.1 hPa 70% 0.0mm
24/06:00pm ESE 15-19 kts 28.4°c 1006.8 hPa 71% 0.0mm
24/05:30pm ESE 15-18 kts 28.9°c 1006.6 hPa 72% 0.0mm
24/05:00pm ESE 15-18 kts 28.9°c 1006.4 hPa 71% 0.0mm
24/04:30pm ESE 15-19 kts 28.9°c 1006.4 hPa 73% 0.0mm
24/04:00pm ESE 15-17 kts 29.3°c 1006.4 hPa 70% 0.0mm
24/03:30pm ESE 15-18 kts 29.3°c 1006.5 hPa 69% 0.0mm
24/03:00pm ESE 17-20 kts 29.3°c 1006.7 hPa 68% 0.0mm
24/02:30pm ESE 15-17 kts 29.3°c 1007.0 hPa 68% 0.0mm
24/02:00pm ESE 13-15 kts 29.7°c 1007.2 hPa 67% 0.0mm
24/01:30pm SE 13-15 kts 29.2°c 1007.4 hPa 68% 0.0mm
24/01:00pm ESE 11-13 kts 29.1°c 1007.8 hPa 66% 0.0mm
24/12:30pm ESE 15-17 kts 29.7°c 1008.0 hPa 67% 0.0mm
24/12:00pm ESE 15-17 kts 29.1°c 1008.3 hPa 68% 0.0mm
24/11:30am ESE 16-18 kts 28.9°c 1008.8 hPa 67% 0.0mm
24/11:00am SE 16-18 kts 28.6°c 1009.2 hPa 72% 0.0mm
24/10:30am SE 15-17 kts 28.5°c 1009.3 hPa 73% 0.0mm
24/10:00am SE 14-16 kts 27.8°c 1009.5 hPa 76% 0.0mm
24/09:30am SE 15-17 kts 27.3°c 1009.5 hPa 76% 0.0mm
24/09:00am SE 13-16 kts 27.0°c 1009.5 hPa 76% 0.0mm
24/08:30am SE 14-16 kts 26.9°c 1009.2 hPa 75% 0.0mm
24/08:00am SE 15-18 kts 27.0°c 1008.8 hPa 76% 0.0mm
24/07:30am SE 14-17 kts 26.9°c 1008.8 hPa 77% 0.0mm
24/07:00am SE 16-18 kts 26.9°c 1008.7 hPa 77% 0.0mm
24/06:30am SE 15-17 kts 27.0°c 1008.3 hPa 77% 0.0mm
24/06:00am SE 16-18 kts 26.9°c 1007.8 hPa 77% 0.0mm
24/05:30am SSE 15-17 kts 27.1°c 1007.6 hPa 79% 0.0mm
24/05:00am SSE 14-16 kts 26.8°c 1007.6 hPa 76% 0.0mm
24/04:30am SE 14-15 kts 26.9°c 1007.7 hPa 76% 0.0mm
24/04:00am SSE 13-14 kts 26.8°c 1007.6 hPa 77% 0.0mm
24/03:30am SSE 11-13 kts 26.7°c 1007.8 hPa 79% 0.0mm
24/03:00am SE 11-13 kts 26.7°c 1007.8 hPa 78% 0.0mm
24/02:30am SSE 11-12 kts 26.7°c 1008.2 hPa 78% 0.0mm
24/02:00am SE 12-14 kts 26.7°c 1008.6 hPa 79% 0.0mm
24/01:30am SSE 13-15 kts 26.9°c 1008.9 hPa 78% 0.0mm
24/01:00am SSE 12-13 kts 26.8°c 1009.4 hPa 78% 0.0mm
24/12:30am SE 12-14 kts 27.0°c 1009.9 hPa 78% 0.0mm
24/12:00am SE 13-15 kts 27.1°c 1010.2 hPa 77% 0.0mm
Time Wind Speed Temp Pressure Rel. Hum Rain
23/11:30pm SE 13-15 kts 27.2°c 1010.5 hPa 76% 0.0mm
23/11:00pm SE 13-15 kts 27.2°c 1010.5 hPa 75% 0.0mm
23/10:30pm SE 16-19 kts 27.3°c 1010.4 hPa 74% 0.0mm
23/10:00pm SE 17-19 kts 27.6°c 1010.1 hPa 75% 0.0mm
23/09:30pm SE 20-22 kts 27.7°c 1010.0 hPa 79% 0.0mm
23/09:00pm SE 21-25 kts 27.7°c 1009.7 hPa 78% 0.0mm
23/08:30pm SE 20-22 kts 27.6°c 1009.5 hPa 77% 0.0mm
23/08:00pm SE 19-22 kts 27.8°c 1009.3 hPa 76% 0.0mm
23/07:30pm SE 17-21 kts 27.6°c 1009.0 hPa 72% 0.0mm
23/07:00pm ESE 18-21 kts 27.7°c 1009.0 hPa 71% 0.0mm
23/06:30pm ESE 16-19 kts 28.0°c 1008.8 hPa 70% 0.0mm
23/06:00pm ESE 17-20 kts 28.3°c 1008.3 hPa 69% 0.0mm
23/05:30pm ESE 16-19 kts 28.3°c 1007.9 hPa 67% 0.0mm
23/05:00pm ESE 18-21 kts 28.5°c 1007.7 hPa 69% 0.0mm
23/04:30pm ESE 17-21 kts 28.8°c 1007.7 hPa 68% 0.0mm
23/04:00pm ESE 18-21 kts 28.9°c 1007.5 hPa 66% 0.0mm
23/03:30pm ESE 18-21 kts 28.8°c 1007.8 hPa 65% 0.0mm
23/03:00pm ESE 19-23 kts 29.5°c 1007.9 hPa 66% 0.0mm
23/02:30pm ESE 17-23 kts 29.5°c 1007.8 hPa 61% 0.0mm
23/02:00pm ESE 18-21 kts 29.3°c 1008.1 hPa 63% 0.0mm
23/01:30pm ESE 17-21 kts 29.1°c 1008.2 hPa 64% 0.0mm
23/01:00pm ESE 17-20 kts 28.9°c 1008.5 hPa 67% 0.0mm
23/12:30pm ESE 16-20 kts 28.8°c 1008.7 hPa 66% 0.0mm
23/12:00pm SE 14-17 kts 28.4°c 1008.9 hPa 67% 0.0mm
23/11:30am SE 12-16 kts 28.8°c 1009.2 hPa 68% 0.0mm
23/11:00am SE 11-13 kts 28.2°c 1009.4 hPa 67% 0.0mm
23/10:30am SE 11-13 kts 27.8°c 1009.9 hPa 65% 0.0mm
23/10:00am SE 11-13 kts 27.7°c 1009.8 hPa 69% 0.0mm
23/09:30am SSE 11-13 kts 27.0°c 1009.7 hPa 68% 0.0mm
23/09:00am SSE 12-16 kts 26.9°c 1009.7 hPa 72% 5.2mm
23/08:30am SSE 13-16 kts 26.8°c 1009.6 hPa 74% 5.2mm
23/08:00am SSE 12-14 kts 26.7°c 1009.4 hPa 74% 5.2mm
23/07:30am SSE 13-16 kts 26.7°c 1009.3 hPa 76% 5.2mm
23/07:00am SSE 13-15 kts 26.6°c 1009.2 hPa 77% 5.2mm
23/06:30am SSE 13-16 kts 26.7°c 1009.0 hPa 78% 5.2mm
23/06:00am SSE 14-16 kts 26.8°c 1008.7 hPa 80% 5.2mm
23/05:30am SSE 15-17 kts 26.5°c 1008.4 hPa 76% 5.2mm
23/05:00am SE 15-17 kts 26.8°c 1008.1 hPa 79% 5.2mm
23/04:30am SE 16-18 kts 26.9°c 1007.8 hPa 78% 5.2mm
23/04:00am SSE 17-19 kts 26.7°c 1007.6 hPa 79% 5.2mm
23/03:30am SSE 18-21 kts 26.7°c 1007.5 hPa 79% 5.2mm
23/03:00am SSE 17-19 kts 26.6°c 1007.8 hPa 79% 5.2mm
23/02:30am SSE 14-17 kts 26.5°c 1008.0 hPa 79% 5.2mm
23/02:00am SSE 14-16 kts 26.6°c 1008.3 hPa 78% 5.2mm
23/01:30am SSE 13-16 kts 26.5°c 1008.5 hPa 79% 5.2mm
23/01:00am SSE 13-16 kts 26.6°c 1008.5 hPa 78% 5.2mm
23/12:30am SSE 14-16 kts 26.6°c 1009.2 hPa 78% 5.2mm
23/12:00am SSE 14-16 kts 26.6°c 1009.6 hPa 78% 5.2mm